Location: Waco, TX
(31.5480°N, 97.1670°W)
Time: 03:25:40
(UTC-05:00)

ISS - Pass Details

Date: 24 May 2018
Orbit: 402 x 407 km, 51.6° (Epoch: 23 May)

Event Time Altitude Azimuth Distance (km) Brightness Sun altitude
Rises 05:20:31 0° 299° (WNW) 2,311 - -13.1°
Reaches altitude 10° 05:22:57 10° 281° (W) 1,449 - -12.7°
Maximum altitude 05:25:23 20° 232° (SW) 1,004 - -12.3°
Exits shadow 05:26:36 16° 203° (SSW) 1,128 -2.1 -12.1°
Drops below altitude 10° 05:27:49 10° 183° (S) 1,443 -1.4 -11.9°
Sets 05:30:14 0° 166° (SSE) 2,298 -0.2 -11.4°
